星链-31553 (STARLINK-31553 )

导读 | 豆包AI

STARLINK-31553是美国太空探索技术公司星链计划的卫星之一,于2024年3月31日发射入轨,属于星链星座组网卫星。星链计划旨在构建全球卫星互联网,为全球偏远地区等提供高速网络服务,该卫星加入星座后进一步扩充了星链网络的覆盖范围与服务能力。

Basic Information
目录编号:
59363
目录名称:
STARLINK-31553
国际标识:
2024-060R
轨道中心:
EARTH
卫星名称:
星链-31553
卫星全名:
星链-31553 (STARLINK-31553 )
卫星状态:
在轨 (已飞行761 天)
发射日期:
2024-03-31 UTC
国别 :
美国 (US)
星等 :
--
Orbit Information
数据来源 国际轨道数据
星历时间: 2026-04-30T22:46:23+0800
11小时前
查看轨道信息
半长轴: 6861.202km
偏心率: 0.0001462
轨道倾角: 43.003°
近地点辐角 240.789°
升交点赤经 319.721°
平近点角 119.281°
近地点: 482.061km
远地点: 484.069km
周期: 94.267分钟
每日圈数: 15.275749
Detailed Information
固有亮度:
5
最大亮度:
0.3
卫星平台:
Starlink v2.0 mini
覆盖范围:
全球
运营商:
太空探索技术公司
运营商所在国:
美国
制造商(研发单位):
太空探索技术公司
制造商所在国:
美国
使用方式:
暂无
Satellite Introduction
星链(Starlink)计划是由太空探索技术公司(SpaceX)提出的一个巨型低轨卫星互联网星座项目,计划在2019年至2024年间在太空搭建由约1.2万颗卫星组成的“星链”网络,其中1584颗将部署在地球上空550千米处的近地轨道,并从2020年开始工作。该卫星仍在工作。
2D Orbit Map
3D Orbit Map
Orbit Altitude Analysis Chart
Orbit Inclination Analysis Chart
Orbit Comprehensive Analysis Chart
View Comprehensive Chart